Owensboro, KY

7:58 AM CDT on May 24, 2017 (GMT -0500)
Owensboro-Daviess County

Weather History for KOWB - May, 2014

Change the Weather History Date:

Sunday, May 11, 2014

  Actual Average Record
Temperature  
Mean Temperature 72 °F -  
Max Temperature 82 °F 77 °F 90 °F (2011)
Min Temperature 63 °F 53 °F 33 °F (1990)
Cooling Degree Days 8    
Growing Degree Days 22 (Base 50)    
Moisture  
Dew Point 69 °F    
Average Humidity 85    
Maximum Humidity 100    
Minimum Humidity 65    
Precipitation  
Precipitation 0.47 in - - ()
Sea Level Pressure  
Sea Level Pressure 30.00 in    
Wind  
Wind Speed 6 mph (SSE)    
Max Wind Speed 16 mph    
Max Gust Speed 18 mph    
Visibility 10 miles    
Events Rain , Hail , Thunderstorm    
Averages and records for this station are not official NWS values.
T = Trace of Precipitation, MM = Missing Value Source: NWS Daily Summary

Daily Weather History Graph

Daily Weather History Graph

Search for Another Location

Airport or City:

Trip Planner

Search our weather history database for the weather conditions in past years. The results will help you decide how hot, cold, wet, or windy it might be!

Date:

Astronomy

May. 11, 2014 Rise Set
Actual Time 5:42 AM CDT 7:48 PM CDT
Civil Twilight 5:13 AM CDT 8:17 PM CDT
Nautical Twilight 4:38 AM CDT 8:52 PM CDT
Astronomical Twilight 3:59 AM CDT 9:31 PM CDT
Moon 4:47 PM CDT (5/11) 3:43 AM CDT (5/11)
Length of Visible Light 15h 03m
Length of Day
14h 05m
Waxing Gibbous, 89% of the Moon is Illuminated
May 11
Waxing Gibbous
May 14
Full
May 21
Last Quarter
May 28
New
Jun 5
First Quarter

Hourly Weather History & Observations

Time (CDT) Temp. Heat Index Dew Point Humidity Pressure Visibility Wind Dir Wind Speed Gust Speed Precip Events Conditions
12:56 AM 63.9 °F - 61.0 °F 90% 30.00 in 10.0 mi SE 3.5 mph - N/A   Clear
1:56 AM 63.9 °F - 61.9 °F 93% 30.00 in 10.0 mi SE 4.6 mph - N/A   Clear
2:56 AM 63.9 °F - 63.0 °F 97% 29.99 in 10.0 mi SE 5.8 mph - N/A   Clear
4:56 AM 63.9 °F - 63.9 °F 100% 30.02 in 10.0 mi Calm Calm - N/A   Mostly Cloudy
5:56 AM 64.9 °F - 64.9 °F 100% 30.04 in 10.0 mi SE 4.6 mph - 0.00 in   Scattered Clouds
7:56 AM 68.9 °F - 65.8 °F 90% 30.05 in 10.0 mi South 8.1 mph - N/A   Scattered Clouds
8:56 AM 72.9 °F - 68.0 °F 85% 30.06 in 10.0 mi South 10.4 mph - N/A   Partly Cloudy
9:56 AM 75.9 °F - 68.9 °F 79% 30.05 in 10.0 mi South 9.2 mph - N/A   Partly Cloudy
10:56 AM 77.9 °F - 70.0 °F 76% 30.05 in 10.0 mi South 10.4 mph - N/A   Mostly Cloudy
11:56 AM 81.9 °F 86.0 °F 70.9 °F 69% 30.04 in 10.0 mi South 11.5 mph - N/A   Mostly Cloudy
12:56 PM 82.9 °F 87.5 °F 70.9 °F 67% 30.00 in 10.0 mi SSW 13.8 mph - N/A   Mostly Cloudy
1:15 PM 82.4 °F 86.3 °F 69.8 °F 66% 30.01 in 10.0 mi South 16.1 mph - N/A Thunderstorm Thunderstorm
1:56 PM 77.0 °F - 66.9 °F 71% 30.01 in 10.0 mi SE 9.2 mph - 0.00 in Rain , Thunderstorm Light Thunderstorms and Rain
2:09 PM 78.8 °F - 66.2 °F 65% 30.01 in 10.0 mi SSE 5.8 mph - 0.00 in   Mostly Cloudy
2:56 PM 81.0 °F 83.8 °F 68.0 °F 65% 29.99 in 10.0 mi SE 6.9 mph - 0.00 in   Scattered Clouds
3:37 PM 80.6 °F 84.6 °F 71.6 °F 74% 29.98 in 10.0 mi SSE 11.5 mph - N/A Thunderstorm Thunderstorm
3:56 PM 74.8 °F - 70.9 °F 87% 29.97 in 7.0 mi South 3.5 mph - 0.22 in Rain , Thunderstorm Thunderstorms and Rain
4:15 PM 73.4 °F - 71.6 °F 94% 29.97 in 5.0 mi East 9.2 mph - 0.25 in Rain , Hail , Thunderstorm Thunderstorms and Rain
4:33 PM 75.2 °F - 69.8 °F 83% 29.98 in 10.0 mi Calm Calm - 0.25 in Thunderstorm Thunderstorm
4:56 PM 75.9 °F - 68.9 °F 79% 29.97 in 7.0 mi SSE 8.1 mph 18.4 mph 0.25 in Thunderstorm Thunderstorm
5:56 PM 75.9 °F - 72.9 °F 90% 29.96 in 10.0 mi ESE 3.5 mph - N/A   Scattered Clouds
6:56 PM 74.8 °F - 72.9 °F 94% 29.96 in 10.0 mi East 5.8 mph - N/A   Clear
7:56 PM 72.0 °F - 70.9 °F 96% 29.96 in 10.0 mi ESE 9.2 mph - N/A   Clear
8:56 PM 72.9 °F - 70.9 °F 93% 29.97 in 10.0 mi SE 6.9 mph - N/A   Clear
9:56 PM 72.0 °F - 70.9 °F 96% 29.98 in 10.0 mi SE 6.9 mph - N/A   Partly Cloudy
10:56 PM 70.9 °F - 70.9 °F 100% 29.99 in 9.0 mi SE 6.9 mph - N/A   Clear
11:56 PM 70.9 °F - 68.9 °F 93% 30.00 in 10.0 mi SE 5.8 mph - N/A   Clear